^^
Cohasset Weather Station Historical Data
 
Daily Summary for June 24, 2019 Units:  English    Metric   Both
Daily Weekly Monthly Yearly Custom
  Current: High: Low: Average:
Temperature: 79.2 °F 91 °F 59 °F 70.6 °F
Dew Point: 54.8 °F 57.5 °F 45.7 °F 51.5 °F
Humidity: 43% 80% 28% 53%
Wind Speed: 0mph 0mph 0mph 0mph
Wind Gust: 0mph 0mph - -
WindCalm - - North
Pressure: 29.92 in 30.01 in 29.92 in -
Precipitation: 0 in      
Historical Graphs
 
 
Tabular Data for June 24, 2019
Time Temperature Dew Point Pressure Wind Wind Speed Wind Gust Humidity Rainfall Rate (Hourly) solar
00:04 64.8 °F 47.8 °F 30.01 in Calm     54% 0 in WeatherDisplay:10.37 W/m2
00:09 64.8 °F 47.8 °F 30.01 in Calm     54% 0 in WeatherDisplay:10.37 W/m2
00:14 64.8 °F 47.8 °F 30.01 in Calm     54% 0 in WeatherDisplay:10.37 W/m2
00:19 64.6 °F 47.6 °F 30.01 in Calm     54% 0 in WeatherDisplay:10.37 W/m2
00:24 64.6 °F 48.1 °F 30.01 in Calm     55% 0 in WeatherDisplay:10.37 W/m2
00:29 64.4 °F 47.9 °F 30.01 in Calm     55% 0 in WeatherDisplay:10.37 W/m2
00:34 64.4 °F 47.9 °F 30.01 in Calm     55% 0 in WeatherDisplay:10.37 W/m2
00:39 64.2 °F 47.7 °F 30.01 in Calm     55% 0 in WeatherDisplay:10.37 W/m2
00:44 64.2 °F 47.7 °F 30.00 in Calm     55% 0 in WeatherDisplay:10.37 W/m2
00:49 64 °F 47.5 °F 30.00 in Calm     55% 0 in WeatherDisplay:10.37 W/m2
00:54 64 °F 47 °F 30.00 in Calm     54% 0 in WeatherDisplay:10.37 W/m2
00:59 64 °F 47 °F 30.00 in Calm     54% 0 in WeatherDisplay:10.37 W/m2
01:04 63.9 °F 46.9 °F 30.00 in Calm     54% 0 in WeatherDisplay:10.37 W/m2
01:09 63.9 °F 46.9 °F 30.00 in Calm     54% 0 in WeatherDisplay:10.37 W/m2
01:14 63.7 °F 46.7 °F 30.00 in Calm     54% 0 in WeatherDisplay:10.37 W/m2
01:19 63.7 °F 46.7 °F 30.00 in Calm     54% 0 in WeatherDisplay:10.37 W/m2
01:24 63.5 °F 46.6 °F 30.00 in Calm     54% 0 in WeatherDisplay:10.37 W/m2
01:29 63.5 °F 46.6 °F 30.00 in Calm     54% 0 in WeatherDisplay:10.37 W/m2
01:34 63.5 °F 46.6 °F 29.99 in Calm     54% 0 in WeatherDisplay:10.37 W/m2
01:39 63.3 °F 46.4 °F 29.99 in Calm     54% 0 in WeatherDisplay:10.37 W/m2
01:44 63.3 °F 46.4 °F 29.99 in Calm     54% 0 in WeatherDisplay:10.37 W/m2
01:49 63.3 °F 46.4 °F 29.99 in Calm     54% 0 in WeatherDisplay:10.37 W/m2
01:54 63.1 °F 46.2 °F 29.99 in Calm     54% 0 in WeatherDisplay:10.37 W/m2
01:59 63.1 °F 46.2 °F 29.99 in Calm     54% 0 in WeatherDisplay:10.37 W/m2
02:04 63 °F 46.1 °F 29.99 in Calm     54% 0 in WeatherDisplay:10.37 W/m2
02:09 63 °F 46.1 °F 29.99 in Calm     54% 0 in WeatherDisplay:10.37 W/m2
02:14 63 °F 46.1 °F 29.99 in Calm     54% 0 in WeatherDisplay:10.37 W/m2
02:19 62.8 °F 45.9 °F 29.99 in Calm     54% 0 in WeatherDisplay:10.37 W/m2
02:24 62.8 °F 45.9 °F 29.99 in Calm     54% 0 in WeatherDisplay:10.37 W/m2
02:29 62.6 °F 45.7 °F 29.99 in Calm     54% 0 in WeatherDisplay:10.37 W/m2
02:34 62.6 °F 45.7 °F 29.99 in Calm     54% 0 in WeatherDisplay:10.37 W/m2
02:39 62.4 °F 46 °F 29.99 in Calm     55% 0 in WeatherDisplay:10.37 W/m2
02:44 62.4 °F 46 °F 29.99 in Calm     55% 0 in WeatherDisplay:10.37 W/m2
02:49 62.2 °F 45.8 °F 29.99 in Calm     55% 0 in WeatherDisplay:10.37 W/m2
02:54 62.2 °F 45.8 °F 29.99 in Calm     55% 0 in WeatherDisplay:10.37 W/m2
02:59 62.2 °F 45.8 °F 29.99 in Calm     55% 0 in WeatherDisplay:10.37 W/m2
03:04 62.1 °F 45.7 °F 29.99 in Calm     55% 0 in WeatherDisplay:10.37 W/m2
03:09 62.1 °F 46.2 °F 29.99 in Calm     56% 0 in WeatherDisplay:10.37 W/m2
03:14 62.1 °F 46.2 °F 29.99 in Calm     56% 0 in WeatherDisplay:10.37 W/m2
03:19 61.9 °F 46.5 °F 29.99 in Calm     57% 0 in WeatherDisplay:10.37 W/m2
03:24 61.7 °F 46.8 °F 29.99 in Calm     58% 0 in WeatherDisplay:10.37 W/m2
03:29 61.7 °F 47.2 °F 29.99 in Calm     59% 0 in WeatherDisplay:10.37 W/m2
03:34 61.5 °F 47.5 °F 29.98 in Calm     60% 0 in WeatherDisplay:10.37 W/m2
03:39 61.5 °F 47.9 °F 29.98 in Calm     61% 0 in WeatherDisplay:10.37 W/m2
03:44 61.3 °F 47.7 °F 29.98 in Calm     61% 0 in WeatherDisplay:10.37 W/m2
03:49 61.3 °F 48.2 °F 29.98 in Calm     62% 0 in WeatherDisplay:10.37 W/m2
03:54 61.2 °F 48.1 °F 29.98 in Calm     62% 0 in WeatherDisplay:10.37 W/m2
03:59 61.2 °F 48.1 °F 29.98 in Calm     62% 0 in WeatherDisplay:10.37 W/m2
04:04 61.2 °F 48.1 °F 29.98 in Calm     62% 0 in WeatherDisplay:10.37 W/m2
04:09 61 °F 47.9 °F 29.98 in Calm     62% 0 in WeatherDisplay:10.37 W/m2
04:14 61 °F 47.9 °F 29.98 in Calm     62% 0 in WeatherDisplay:10.37 W/m2
04:19 60.8 °F 47.7 °F 29.98 in Calm     62% 0 in WeatherDisplay:10.37 W/m2
04:24 60.6 °F 47.9 °F 29.98 in Calm     63% 0 in WeatherDisplay:10.37 W/m2
04:29 60.6 °F 47.9 °F 29.98 in Calm     63% 0 in WeatherDisplay:10.37 W/m2
04:34 60.4 °F 47.7 °F 29.97 in Calm     63% 0 in WeatherDisplay:10.37 W/m2
04:39 60.4 °F 47.7 °F 29.97 in Calm     63% 0 in WeatherDisplay:10.37 W/m2
04:44 60.3 °F 47.6 °F 29.97 in Calm     63% 0 in WeatherDisplay:10.37 W/m2
04:49 60.3 °F 48.1 °F 29.97 in Calm     64% 0 in WeatherDisplay:10.37 W/m2
04:54 60.3 °F 48.1 °F 29.97 in Calm     64% 0 in WeatherDisplay:10.37 W/m2
04:59 60.1 °F 47.9 °F 29.97 in Calm     64% 0 in WeatherDisplay:10.37 W/m2
05:04 60.1 °F 48.3 °F 29.97 in Calm     65% 0 in WeatherDisplay:10.37 W/m2
05:09 59.9 °F 48.5 °F 29.97 in Calm     66% 0 in WeatherDisplay:10.37 W/m2
05:14 59.9 °F 48.5 °F 29.97 in Calm     66% 0 in WeatherDisplay:10.37 W/m2
05:19 59.9 °F 48.9 °F 29.97 in Calm     67% 0 in WeatherDisplay:10.37 W/m2
05:24 59.7 °F 48.7 °F 29.97 in Calm     67% 0 in WeatherDisplay:10.37 W/m2
05:29 59.7 °F 48.7 °F 29.97 in Calm     67% 0 in WeatherDisplay:10.37 W/m2
05:34 59.5 °F 48.9 °F 29.97 in Calm     68% 0 in WeatherDisplay:10.37 W/m2
05:39 59.5 °F 49.3 °F 29.97 in Calm     69% 0 in WeatherDisplay:10.37 W/m2
05:44 59.5 °F 49.3 °F 29.97 in Calm     69% 0 in WeatherDisplay:10.37 W/m2
05:49 59.5 °F 49.3 °F 29.97 in Calm     69% 0 in WeatherDisplay:10.37 W/m2
05:54 59.5 °F 49.3 °F 29.97 in Calm     69% 0 in WeatherDisplay:10.37 W/m2
05:59 59.5 °F 49.3 °F 29.97 in Calm     69% 0 in WeatherDisplay:10.37 W/m2
06:04 59.4 °F 49.2 °F 29.97 in Calm     69% 0 in WeatherDisplay:10.37 W/m2
06:09 59.4 °F 49.2 °F 29.97 in Calm     69% 0 in WeatherDisplay:10.37 W/m2
06:14 59.4 °F 49.6 °F 29.97 in Calm     70% 0 in WeatherDisplay:10.37 W/m2
06:19 59.4 °F 49.6 °F 29.97 in Calm     70% 0 in WeatherDisplay:10.37 W/m2
06:24 59.2 °F 49.4 °F 29.97 in Calm     70% 0 in WeatherDisplay:10.37 W/m2
06:29 59.2 °F 49.8 °F 29.97 in Calm     71% 0 in WeatherDisplay:10.37 W/m2
06:34 59.2 °F 49.8 °F 29.98 in Calm     71% 0 in WeatherDisplay:10.37 W/m2
06:39 59 °F 49.6 °F 29.98 in Calm     71% 0 in WeatherDisplay:10.37 W/m2
06:44 59 °F 50.4 °F 29.98 in Calm     73% 0 in WeatherDisplay:10.37 W/m2
06:49 59 °F 50.4 °F 29.98 in Calm     73% 0 in WeatherDisplay:10.37 W/m2
06:54 59 °F 50.4 °F 29.98 in Calm     73% 0 in WeatherDisplay:10.37 W/m2
06:59 59 °F 50.7 °F 29.98 in Calm     74% 0 in WeatherDisplay:10.37 W/m2
07:04 59 °F 51.1 °F 29.98 in Calm     75% 0 in WeatherDisplay:10.37 W/m2
07:09 59 °F 51.4 °F 29.98 in Calm     76% 0 in WeatherDisplay:10.37 W/m2
07:14 59 °F 51.4 °F 29.98 in Calm     76% 0 in WeatherDisplay:10.37 W/m2
07:19 59 °F 51.8 °F 29.98 in Calm     77% 0 in WeatherDisplay:10.37 W/m2
07:24 59.2 °F 52.3 °F 29.98 in Calm     78% 0 in WeatherDisplay:10.37 W/m2
07:29 59.4 °F 52.9 °F 29.98 in Calm     79% 0 in WeatherDisplay:10.37 W/m2
07:34 59.4 °F 52.9 °F 29.98 in Calm     79% 0 in WeatherDisplay:10.37 W/m2
07:39 59.5 °F 53.3 °F 29.98 in Calm     80% 0 in WeatherDisplay:10.37 W/m2
07:44 59.7 °F 53.5 °F 29.98 in Calm     80% 0 in WeatherDisplay:10.37 W/m2
07:49 60.1 °F 53.9 °F 29.98 in Calm     80% 0 in WeatherDisplay:10.37 W/m2
07:54 60.3 °F 53.8 °F 29.98 in Calm     79% 0 in WeatherDisplay:10.37 W/m2
07:59 60.4 °F 53.9 °F 29.98 in Calm     79% 0 in WeatherDisplay:10.37 W/m2
08:04 60.8 °F 54.2 °F 29.98 in Calm     79% 0 in WeatherDisplay:10.37 W/m2
08:09 61.2 °F 54.6 °F 29.98 in Calm     79% 0 in WeatherDisplay:10.37 W/m2
08:14 61.5 °F 54.9 °F 29.98 in Calm     79% 0 in WeatherDisplay:10.37 W/m2
08:19 62.1 °F 55.5 °F 29.98 in Calm     79% 0 in WeatherDisplay:10.37 W/m2
08:24 62.4 °F 55.1 °F 29.98 in Calm     77% 0 in WeatherDisplay:10.37 W/m2
08:29 62.8 °F 55.5 °F 29.98 in Calm     77% 0 in WeatherDisplay:10.37 W/m2
08:34 63.1 °F 55.4 °F 29.98 in Calm     76% 0 in WeatherDisplay:10.37 W/m2
08:39 63.7 °F 55.3 °F 29.98 in Calm     74% 0 in WeatherDisplay:10.37 W/m2
08:44 64.8 °F 56.3 °F 29.98 in Calm     74% 0 in WeatherDisplay:10.37 W/m2
08:49 64.8 °F 56.7 °F 29.98 in Calm     75% 0 in WeatherDisplay:10.37 W/m2
08:54 64.9 °F 56.8 °F 29.98 in Calm     75% 0 in WeatherDisplay:10.37 W/m2
08:59 65.3 °F 53.2 °F 29.98 in Calm     65% 0 in WeatherDisplay:10.37 W/m2
09:04 65.7 °F 52.8 °F 29.98 in Calm     63% 0 in WeatherDisplay:10.37 W/m2
09:09 66.4 °F 51.6 °F 29.98 in Calm     59% 0 in WeatherDisplay:10.37 W/m2
09:14 66.7 °F 50.5 °F 29.98 in Calm     56% 0 in WeatherDisplay:10.37 W/m2
09:19 67.3 °F 54.7 °F 29.98 in Calm     64% 0 in WeatherDisplay:10.37 W/m2
09:24 67.6 °F 54.6 °F 29.98 in Calm     63% 0 in WeatherDisplay:10.37 W/m2
09:29 68 °F 53.1 °F 29.98 in Calm     59% 0 in WeatherDisplay:10.37 W/m2
09:34 68.4 °F 52.6 °F 29.98 in Calm     57% 0 in WeatherDisplay:10.37 W/m2
09:39 68.9 °F 52.1 °F 29.98 in Calm     55% 0 in WeatherDisplay:10.37 W/m2
09:44 69.6 °F 52.2 °F 29.98 in Calm     54% 0 in WeatherDisplay:10.37 W/m2
09:49 70.3 °F 52.4 °F 29.98 in Calm     53% 0 in WeatherDisplay:10.37 W/m2
09:54 71.1 °F 52.6 °F 29.98 in Calm     52% 0 in WeatherDisplay:10.37 W/m2
09:59 73.6 °F 52.1 °F 29.98 in Calm     47% 0 in WeatherDisplay:10.37 W/m2
10:04 73.4 °F 53.6 °F 29.98 in Calm     50% 0 in WeatherDisplay:10.37 W/m2
10:09 73.8 °F 53.4 °F 29.98 in Calm     49% 0 in WeatherDisplay:10.37 W/m2
10:14 74.5 °F 53.5 °F 29.98 in Calm     48% 0 in WeatherDisplay:10.37 W/m2
10:19 75.4 °F 54.3 °F 29.98 in Calm     48% 0 in WeatherDisplay:10.37 W/m2
10:24 75.7 °F 53.4 °F 29.98 in Calm     46% 0 in WeatherDisplay:10.37 W/m2
10:29 75.9 °F 53.6 °F 29.98 in Calm     46% 0 in WeatherDisplay:10.37 W/m2
10:34 76.5 °F 54.8 °F 29.97 in Calm     47% 0 in WeatherDisplay:10.37 W/m2
10:39 77 °F 54.6 °F 29.97 in Calm     46% 0 in WeatherDisplay:10.37 W/m2
10:44 76.5 °F 54.2 °F 29.98 in Calm     46% 0 in WeatherDisplay:10.37 W/m2
10:49 76.3 °F 54.6 °F 29.98 in Calm     47% 0 in WeatherDisplay:10.37 W/m2
10:54 78.3 °F 55.2 °F 29.97 in Calm     45% 0 in WeatherDisplay:10.37 W/m2
10:59 79.2 °F 55.4 °F 29.97 in Calm     44% 0 in WeatherDisplay:10.37 W/m2
11:04 80.2 °F 56.3 °F 29.97 in Calm     44% 0 in WeatherDisplay:10.37 W/m2
11:09 81 °F 56.4 °F 29.97 in Calm     43% 0 in WeatherDisplay:10.37 W/m2
11:14 80.6 °F 56 °F 29.97 in Calm     43% 0 in WeatherDisplay:10.37 W/m2
11:19 82 °F 56 °F 29.97 in Calm     41% 0 in WeatherDisplay:10.37 W/m2
11:24 79.7 °F 55.9 °F 29.97 in Calm     44% 0 in WeatherDisplay:10.37 W/m2
11:29 80.8 °F 56.9 °F 29.97 in Calm     44% 0 in WeatherDisplay:10.37 W/m2
11:34 83.1 °F 57 °F 29.97 in Calm     41% 0 in WeatherDisplay:10.37 W/m2
11:39 82.8 °F 56.7 °F 29.97 in Calm     41% 0 in WeatherDisplay:10.37 W/m2
11:44 81.5 °F 56.2 °F 29.97 in Calm     42% 0 in WeatherDisplay:10.37 W/m2
11:49 79.9 °F 55.4 °F 29.97 in Calm     43% 0 in WeatherDisplay:10.37 W/m2
11:54 79.9 °F 56.7 °F 29.97 in Calm     45% 0 in WeatherDisplay:10.37 W/m2
11:59 81 °F 55.7 °F 29.97 in Calm     42% 0 in WeatherDisplay:10.37 W/m2
12:04 81 °F 56.4 °F 29.97 in Calm     43% 0 in WeatherDisplay:10.37 W/m2
12:09 80.4 °F 55.9 °F 29.97 in Calm     43% 0 in WeatherDisplay:10.37 W/m2
12:14 82.2 °F 56.8 °F 29.97 in Calm     42% 0 in WeatherDisplay:10.37 W/m2
12:19 81.9 °F 56.6 °F 29.97 in Calm     42% 0 in WeatherDisplay:10.37 W/m2
12:24 82 °F 56.6 °F 29.97 in Calm     42% 0 in WeatherDisplay:10.37 W/m2
12:29 81.3 °F 56 °F 29.97 in Calm     42% 0 in WeatherDisplay:10.37 W/m2
12:34 81.5 °F 55.5 °F 29.97 in Calm     41% 0 in WeatherDisplay:10.37 W/m2
12:39 81.1 °F 55.2 °F 29.97 in Calm     41% 0 in WeatherDisplay:10.37 W/m2
12:44 81.3 °F 56 °F 29.97 in Calm     42% 0 in WeatherDisplay:10.37 W/m2
12:49 81.3 °F 56 °F 29.97 in Calm     42% 0 in WeatherDisplay:10.37 W/m2
12:54 83.7 °F 56.1 °F 29.97 in Calm     39% 0 in WeatherDisplay:10.37 W/m2
12:59 83.1 °F 56.3 °F 29.97 in Calm     40% 0 in WeatherDisplay:10.37 W/m2
13:04 86.5 °F 56.4 °F 29.97 in Calm     36% 0 in WeatherDisplay:10.37 W/m2
13:09 85.3 °F 57.5 °F 29.97 in Calm     39% 0 in WeatherDisplay:10.37 W/m2
13:14 85.1 °F 55.9 °F 29.97 in Calm     37% 0 in WeatherDisplay:10.37 W/m2
13:19 87.1 °F 56.1 °F 29.97 in Calm     35% 0 in WeatherDisplay:10.37 W/m2
13:24 84.7 °F 55.5 °F 29.97 in Calm     37% 0 in WeatherDisplay:10.37 W/m2
13:29 86.9 °F 56.7 °F 29.97 in Calm     36% 0 in WeatherDisplay:10.37 W/m2
13:34 85.3 °F 55.3 °F 29.96 in Calm     36% 0 in WeatherDisplay:10.37 W/m2
13:39 84.7 °F 55.5 °F 29.96 in Calm     37% 0 in WeatherDisplay:10.37 W/m2
13:44 88.5 °F 55.7 °F 29.96 in Calm     33% 0 in WeatherDisplay:10.37 W/m2
13:49 88.7 °F 56.7 °F 29.96 in Calm     34% 0 in WeatherDisplay:10.37 W/m2
13:54 89.8 °F 56.9 °F 29.96 in Calm     33% 0 in WeatherDisplay:10.37 W/m2
13:59 88.2 °F 55.5 °F 29.96 in Calm     33% 0 in WeatherDisplay:10.37 W/m2
14:04 87.6 °F 54.9 °F 29.96 in Calm     33% 0 in WeatherDisplay:10.37 W/m2
14:09 91 °F 55.3 °F 29.95 in Calm     30% 0 in WeatherDisplay:10.37 W/m2
14:14 87.4 °F 54.8 °F 29.95 in Calm     33% 0 in WeatherDisplay:10.37 W/m2
14:19 87.6 °F 53.2 °F 29.95 in Calm     31% 0 in WeatherDisplay:10.37 W/m2
14:23 85.8 °F 53.4 °F 29.95 in Calm     33% 0 in WeatherDisplay:10.37 W/m2
14:29 87.8 °F 50.6 °F 29.95 in Calm     28% 0 in WeatherDisplay:10.37 W/m2
14:34 90.3 °F 53.7 °F 29.95 in Calm     29% 0 in WeatherDisplay:10.37 W/m2
14:39 88.7 °F 52.4 °F 29.95 in Calm     29% 0 in WeatherDisplay:10.37 W/m2
14:44 86 °F 53.5 °F 29.95 in Calm     33% 0 in WeatherDisplay:10.37 W/m2
14:49 85.3 °F 52.1 °F 29.95 in Calm     32% 0 in WeatherDisplay:10.37 W/m2
14:54 87.1 °F 53.7 °F 29.94 in Calm     32% 0 in WeatherDisplay:10.37 W/m2
14:59 84.9 °F 52.6 °F 29.94 in Calm     33% 0 in WeatherDisplay:10.37 W/m2
15:04 87.1 °F 52.8 °F 29.94 in Calm     31% 0 in WeatherDisplay:10.37 W/m2
15:09 86.5 °F 52.3 °F 29.94 in Calm     31% 0 in WeatherDisplay:10.37 W/m2
15:14 85.8 °F 50.8 °F 29.94 in Calm     30% 0 in WeatherDisplay:10.37 W/m2
15:19 85.3 °F 52.1 °F 29.94 in Calm     32% 0 in WeatherDisplay:10.37 W/m2
15:24 86.5 °F 52.3 °F 29.94 in Calm     31% 0 in WeatherDisplay:10.37 W/m2
15:29 83.7 °F 53.1 °F 29.94 in Calm     35% 0 in WeatherDisplay:10.37 W/m2
15:34 83.7 °F 53.1 °F 29.93 in Calm     35% 0 in WeatherDisplay:10.37 W/m2
15:39 82.8 °F 53.1 °F 29.93 in Calm     36% 0 in WeatherDisplay:10.37 W/m2
15:44 81.9 °F 51.6 °F 29.93 in Calm     35% 0 in WeatherDisplay:10.37 W/m2
15:49 81.7 °F 51.4 °F 29.93 in Calm     35% 0 in WeatherDisplay:10.37 W/m2
15:54 81.1 °F 49.3 °F 29.93 in Calm     33% 0 in WeatherDisplay:10.37 W/m2
15:59 80.4 °F 49.5 °F 29.93 in Calm     34% 0 in WeatherDisplay:10.37 W/m2
16:04 79.5 °F 50.2 °F 29.93 in Calm     36% 0 in WeatherDisplay:10.37 W/m2
16:09 78.8 °F 50.3 °F 29.93 in Calm     37% 0 in WeatherDisplay:10.37 W/m2
16:14 78.6 °F 51.6 °F 29.93 in Calm     39% 0 in WeatherDisplay:10.37 W/m2
16:19 78.6 °F 51.6 °F 29.93 in Calm     39% 0 in WeatherDisplay:10.37 W/m2
16:24 78.3 °F 52.7 °F 29.93 in Calm     41% 0 in WeatherDisplay:10.37 W/m2
16:29 78.1 °F 52.5 °F 29.93 in Calm     41% 0 in WeatherDisplay:10.37 W/m2
16:34 77.9 °F 53.6 °F 29.93 in Calm     43% 0 in WeatherDisplay:10.37 W/m2
16:39 77.4 °F 53.1 °F 29.93 in Calm     43% 0 in WeatherDisplay:10.37 W/m2
16:44 77.7 °F 52.1 °F 29.93 in Calm     41% 0 in WeatherDisplay:10.37 W/m2
16:49 78.3 °F 52 °F 29.93 in Calm     40% 0 in WeatherDisplay:10.37 W/m2
16:54 78.3 °F 52.7 °F 29.93 in Calm     41% 0 in WeatherDisplay:10.37 W/m2
16:59 78.6 °F 52.3 °F 29.93 in Calm     40% 0 in WeatherDisplay:10.37 W/m2
17:04 78.3 °F 55.2 °F 29.93 in Calm     45% 0 in WeatherDisplay:10.37 W/m2
17:09 77.4 °F 54.4 °F 29.92 in Calm     45% 0 in WeatherDisplay:10.37 W/m2
17:14 79.2 °F 54.8 °F 29.92 in Calm     43% 0 in WeatherDisplay:10.37 W/m2
Cohasset, California, USA
Compliments of Weather Underground - 1.75 mb